• Em Portugal
  • Lista de países
  • Para 7 dias
  • Temperatura da água
  • Mapas de satélite
  • Mapa do tempo
  • Widgets de tempo
  • user-avatar
    Iniciar Sessão

    Previsão horária em Galway

    Hoje, 20 Novembro, Segunda-feira

    Tempo Temperatura Precipitação Vento Pressão Humidade
    00:00 +12°C° 0,1 mm 8 m/s 758 mmHg 93%
    01:00 +12°C° 0,1 mm 7 m/s 758 mmHg 93%
    02:00 +12°C° 0,1 mm 7 m/s 758 mmHg 93%
    03:00 +12°C° 0,1 mm 7 m/s 758 mmHg 93%
    04:00 +12°C° 0,1 mm 7 m/s 758 mmHg 93%
    05:00 +13°C° 0 mm 6 m/s 757 mmHg 93%
    06:00 +13°C° 0,1 mm 6 m/s 757 mmHg 93%
    07:00 +13°C° 0,1 mm 6 m/s 757 mmHg 93%
    08:00 +13°C° 0,1 mm 6 m/s 757 mmHg 93%
    09:00 +13°C° 0 mm 5 m/s 758 mmHg 92%
    10:00 +13°C° 0 mm 5 m/s 758 mmHg 92%
    11:00 +14°C° 0 mm 5 m/s 757 mmHg 92%
    12:00 +14°C° 0,2 mm 4 m/s 757 mmHg 93%
    13:00 +13°C° 0,2 mm 4 m/s 757 mmHg 95%
    14:00 +13°C° 0,2 mm 4 m/s 757 mmHg 96%
    15:00 +13°C° 0,2 mm 4 m/s 756 mmHg 96%
    16:00 +13°C° 0,2 mm 5 m/s 756 mmHg 96%
    17:00 +14°C° 0,2 mm 5 m/s 756 mmHg 97%
    18:00 +14°C° 0,2 mm 5 m/s 756 mmHg 96%
    19:00 +14°C° 0,2 mm 6 m/s 756 mmHg 96%
    20:00 +14°C° 0,2 mm 6 m/s 756 mmHg 96%
    21:00 +14°C° 0,1 mm 6 m/s 756 mmHg 95%
    22:00 +13°C° 0,1 mm 6 m/s 756 mmHg 95%
    23:00 +13°C° 0,1 mm 6 m/s 755 mmHg 95%

    Amanhã, 21 Novembro, Terça-feira

    Tempo Temperatura Precipitação Vento Pressão Humidade
    00:00 +13°C° 0 mm 5 m/s 755 mmHg 95%
    01:00 +13°C° 0 mm 5 m/s 755 mmHg 95%
    02:00 +13°C° 0 mm 5 m/s 754 mmHg 95%
    03:00 +13°C° 0 mm 5 m/s 754 mmHg 94%
    04:00 +12°C° 0 mm 5 m/s 753 mmHg 94%
    05:00 +12°C° 0 mm 5 m/s 752 mmHg 94%
    06:00 +12°C° 0,4 mm 5 m/s 752 mmHg 93%
    07:00 +11°C° 0,4 mm 6 m/s 751 mmHg 93%
    08:00 +11°C° 0,4 mm 6 m/s 750 mmHg 93%
    09:00 +13°C° 0,5 mm 6 m/s 750 mmHg 93%
    10:00 +12°C° 0,5 mm 7 m/s 749 mmHg 93%
    11:00 +14°C° 0,5 mm 7 m/s 749 mmHg 93%
    12:00 +14°C° 0,1 mm 7 m/s 749 mmHg 93%
    13:00 +14°C° 0,1 mm 6 m/s 748 mmHg 93%
    14:00 +13°C° 0,1 mm 5 m/s 748 mmHg 94%
    15:00 +13°C° 0,1 mm 5 m/s 747 mmHg 94%
    16:00 +13°C° 0,1 mm 6 m/s 747 mmHg 94%
    17:00 +13°C° 0,1 mm 6 m/s 746 mmHg 95%
    18:00 +13°C° 0,1 mm 6 m/s 746 mmHg 94%
    19:00 +13°C° 0,1 mm 6 m/s 746 mmHg 93%
    20:00 +13°C° 0,1 mm 6 m/s 745 mmHg 92%
    21:00 +12°C° 0 mm 5 m/s 745 mmHg 93%
    22:00 +12°C° 0 mm 4 m/s 745 mmHg 94%
    23:00 +11°C° 0 mm 4 m/s 744 mmHg 95%

    Depois de amanhã, 22 Novembro, Quarta-feira

    Tempo Temperatura Precipitação Vento Pressão Humidade
    00:00 +11°C° 0,5 mm 3 m/s 743 mmHg 95%
    01:00 +11°C° 0,5 mm 3 m/s 743 mmHg 95%
    02:00 +12°C° 0,5 mm 2 m/s 742 mmHg 95%
    03:00 +12°C° 0,5 mm 2 m/s 741 mmHg 96%
    04:00 +10°C° 0,5 mm 2 m/s 740 mmHg 96%
    05:00 +10°C° 0,5 mm 2 m/s 739 mmHg 96%
    06:00 +10°C° 0,1 mm 2 m/s 739 mmHg 96%
    07:00 +10°C° 0,1 mm 2 m/s 738 mmHg 95%
    08:00 +9°C° 0,1 mm 2 m/s 738 mmHg 95%
    09:00 +10°C° 0,1 mm 2 m/s 738 mmHg 93%
    10:00 +10°C° 0,1 mm 2 m/s 738 mmHg 91%
    11:00 +10°C° 0,1 mm 2 m/s 738 mmHg 89%
    12:00 +11°C° 0,2 mm 1 m/s 738 mmHg 89%
    13:00 +11°C° 0,2 mm 1 m/s 738 mmHg 89%
    14:00 +11°C° 0,2 mm 1 m/s 737 mmHg 89%
    15:00 +11°C° 0,3 mm 1 m/s 737 mmHg 90%
    16:00 +10°C° 0,3 mm 1 m/s 737 mmHg 92%
    17:00 +10°C° 0,3 mm 1 m/s 737 mmHg 93%
    18:00 +9°C° 0,4 mm 2 m/s 737 mmHg 94%
    19:00 +9°C° 0,4 mm 3 m/s 737 mmHg 94%
    20:00 +8°C° 0,4 mm 4 m/s 737 mmHg 95%
    21:00 +8°C° 0,2 mm 4 m/s 737 mmHg 94%
    22:00 +8°C° 0,2 mm 5 m/s 738 mmHg 92%
    23:00 +8°C° 0,2 mm 5 m/s 738 mmHg 91%

    23 Novembro, Quinta-feira

    Tempo Temperatura Precipitação Vento Pressão Humidade
    00:00 +7°C° 0,1 mm 5 m/s 739 mmHg 89%
    01:00 +5°C° 0,1 mm 6 m/s 740 mmHg 87%
    02:00 +5°C° 0,1 mm 6 m/s 741 mmHg 85%
    03:00 +5°C° 0,1 mm 5 m/s 742 mmHg 84%
    04:00 +5°C° 0,1 mm 5 m/s 742 mmHg 83%
    05:00 +4°C° 0,1 mm 4 m/s 743 mmHg 82%
    06:00 +3°C° 0 mm 5 m/s 744 mmHg 81%
    07:00 +3°C° 0 mm 5 m/s 744 mmHg 80%
    08:00 +5°C° 0 mm 5 m/s 745 mmHg 80%
    09:00 +4°C° 0 mm 6 m/s 745 mmHg 77%
    10:00 +5°C° 0 mm 6 m/s 745 mmHg 74%
    11:00 +6°C° 0 mm 7 m/s 746 mmHg 71%
    12:00 +7°C° 0 mm 6 m/s 746 mmHg 72%
    13:00 +7°C° 0 mm 6 m/s 746 mmHg 73%
    14:00 +7°C° 0 mm 5 m/s 746 mmHg 74%
    15:00 +6°C° 0 mm 5 m/s 746 mmHg 77%
    16:00 +6°C° 0 mm 4 m/s 746 mmHg 80%
    17:00 +5°C° 0 mm 4 m/s 747 mmHg 83%
    18:00 +5°C° 0 mm 3 m/s 747 mmHg 83%
    19:00 +5°C° 0 mm 3 m/s 748 mmHg 84%
    20:00 +5°C° 0 mm 3 m/s 748 mmHg 85%
    21:00 +5°C° 0,1 mm 3 m/s 749 mmHg 85%
    22:00 +5°C° 0,1 mm 3 m/s 749 mmHg 86%
    23:00 +5°C° 0,1 mm 3 m/s 749 mmHg 86%

    24 Novembro, Sexta-feira

    Tempo Temperatura Precipitação Vento Pressão Humidade
    00:00 +5°C° 0 mm 3 m/s 749 mmHg 86%
    01:00 +5°C° 0 mm 3 m/s 750 mmHg 85%
    02:00 +4°C° 0 mm 4 m/s 750 mmHg 84%
    03:00 +4°C° 0 mm 3 m/s 751 mmHg 84%
    04:00 +3°C° 0 mm 3 m/s 751 mmHg 84%
    05:00 +3°C° 0 mm 3 m/s 752 mmHg 85%
    06:00 +3°C° 0 mm 3 m/s 752 mmHg 84%
    07:00 +3°C° 0 mm 3 m/s 753 mmHg 84%
    08:00 +2°C° 0 mm 3 m/s 754 mmHg 83%
    09:00 +3°C° 0 mm 3 m/s 754 mmHg 79%
    10:00 +4°C° 0 mm 3 m/s 754 mmHg 74%
    11:00 +5°C° 0 mm 4 m/s 755 mmHg 70%
    12:00 +5°C° 0 mm 4 m/s 755 mmHg 70%
    13:00 +5°C° 0 mm 3 m/s 755 mmHg 71%
    14:00 +5°C° 0 mm 3 m/s 755 mmHg 71%
    15:00 +4°C° 0 mm 3 m/s 755 mmHg 73%
    16:00 +4°C° 0 mm 3 m/s 755 mmHg 75%
    17:00 +3°C° 0 mm 3 m/s 755 mmHg 76%
    18:00 +3°C° 0 mm 3 m/s 756 mmHg 76%
    19:00 +3°C° 0 mm 3 m/s 756 mmHg 76%
    20:00 +3°C° 0 mm 3 m/s 756 mmHg 75%
    21:00 +2°C° 0 mm 3 m/s 756 mmHg 75%
    22:00 +2°C° 0 mm 3 m/s 756 mmHg 74%
    23:00 +2°C° 0 mm 3 m/s 756 mmHg 74%

    25 Novembro, Sábado

    Tempo Temperatura Precipitação Vento Pressão Humidade
    00:00 +2°C° 0 mm 3 m/s 757 mmHg 73%
    01:00 +2°C° 0 mm 3 m/s 757 mmHg 73%
    02:00 +2°C° 0 mm 3 m/s 757 mmHg 72%
    03:00 +2°C° 0,1 mm 3 m/s 758 mmHg 74%
    04:00 +2°C° 0,1 mm 3 m/s 758 mmHg 76%
    05:00 +2°C° 0,1 mm 3 m/s 759 mmHg 77%
    06:00 +2°C° 0,1 mm 3 m/s 759 mmHg 77%
    07:00 +2°C° 0,1 mm 3 m/s 760 mmHg 76%
    08:00 +2°C° 0,1 mm 3 m/s 761 mmHg 76%
    09:00 +3°C° 0 mm 4 m/s 762 mmHg 71%
    10:00 +4°C° 0 mm 4 m/s 763 mmHg 66%
    11:00 +5°C° 0 mm 4 m/s 763 mmHg 61%
    12:00 +5°C° 0,1 mm 4 m/s 764 mmHg 62%
    13:00 +5°C° 0,1 mm 4 m/s 764 mmHg 64%
    14:00 +3°C° 0,1 mm 5 m/s 765 mmHg 65%
    15:00 +3°C° 0,3 mm 5 m/s 765 mmHg 69%
    16:00 +2°C° 0,3 mm 5 m/s 766 mmHg 73%
    17:00 +2°C° 0,3 mm 5 m/s 766 mmHg 77%
    18:00 +2°C° 0,3 mm 5 m/s 767 mmHg 77%
    19:00 +1°C° 0,3 mm 4 m/s 767 mmHg 78%
    20:00 +1°C° 0,3 mm 4 m/s 768 mmHg 79%
    21:00 +1°C° 0 mm 4 m/s 769 mmHg 79%
    22:00 +1°C° 0 mm 4 m/s 769 mmHg 78%
    23:00 0°C° 0 mm 4 m/s 770 mmHg 77%
    Mostrar mais